Location: Le Hiès Ruisseau
(43.3000°N, 0.4500°W)
Time: 21:11:00
(UTC+00:00)

NOSS 2-1 (C) - Pass Details

Date: 28 January 2023
Orbit: 407 x 1771 km, 63.4° (Epoch: 11 March)

Event Time Altitude Azimuth Distance (km) Brightness Sun altitude
Rises 18:51:42 0° 322° (NW) 2,796 7.4 -18.9°
Reaches altitude 10° 18:53:38 10° 321° (NW) 2,026 6.6 -19.3°
Maximum altitude 18:58:12 80° 235° (SW) 812 4.1 -20.1°
Drops below altitude 10° 19:04:44 10° 150° (SSE) 2,860 6.7 -21.3°
Sets 19:07:53 0° 149° (SSE) 4,049 7.5 -21.8°
